This is the latest recevied weather packets stored in our database for station/object W5MAI. If no packets are shown the sender has not sent any weather packets the latest 10 day(s).
| Time | Temp. | Humidity | Pressure | Rain* | Wind** | Luminosity | Snow |
|---|---|---|---|---|---|---|---|
| 1777620827 | 16.67° C | 94% | 1014.2 hPa | 6.1 mm | - | 0 W/m² | - |
| 1777620253 | 16.67° C | 94% | 1014.7 hPa | 4.83 mm | - | 0 W/m² | - |
| 1777619620 | 16.67° C | 94% | 1014.9 hPa | 3.81 mm | - | 0 W/m² | - |
| 1777619027 | 17.22° C | 94% | 1014.3 hPa | 3.56 mm | - | 0 W/m² | - |
| 1777618416 | 17.22° C | 94% | 1013.9 hPa | 3.3 mm | - | 0 W/m² | - |
| 1777617830 | 17.22° C | 94% | 1014.8 hPa | 4.32 mm | - | 0 W/m² | - |
| 1777617213 | 17.22° C | 94% | 1014.8 hPa | 8.13 mm | - | 0 W/m² | - |
| 1777616615 | 17.22° C | 93% | 1013.8 hPa | 8.13 mm | - | 0 W/m² | - |
| 1777616029 | 17.22° C | 93% | 1013.9 hPa | 7.87 mm | - | 0 W/m² | - |
| 1777615414 | 17.22° C | 92% | 1013.8 hPa | 7.62 mm | - | 0 W/m² | - |
| 1777614818 | 17.78° C | 91% | 1014.7 hPa | 6.1 mm | - | 0 W/m² | - |
| 1777614212 | 18.33° C | 89% | 1014.7 hPa | 3.3 mm | - | 0 W/m² | - |
| 1777613617 | 18.33° C | 89% | 1014.7 hPa | 0 mm | - | 0 W/m² | - |
| 1777613016 | 18.33° C | 89% | 1013.9 hPa | 0 mm | - | 0 W/m² | - |
| 1777612410 | 18.33° C | 89% | 1013.9 hPa | 0 mm | - | 0 W/m² | - |
| 1777611814 | 18.33° C | 88% | 1014 hPa | 0 mm | - | 0 W/m² | - |
| 1777611240 | 18.33° C | 88% | 1013.5 hPa | 0 mm | - | 0 W/m² | - |
| 1777610606 | 18.33° C | 89% | 1013.7 hPa | 0 mm | - | 0 W/m² | - |
| 1777610042 | 18.33° C | 88% | 1013.7 hPa | 0 mm | - | 0 W/m² | - |
| 1777609450 | 18.89° C | 89% | 1014.2 hPa | 0 mm | - | 0 W/m² | - |
| 1777608848 | 18.89° C | 89% | 1014.3 hPa | 0 mm | - | 0 W/m² | - |
| 1777608257 | 18.89° C | 89% | 1014.7 hPa | 0 mm | - | 0 W/m² | - |
| 1777607605 | 18.89° C | 90% | 1014.7 hPa | 0 mm | - | 0 W/m² | - |
| 1777607024 | 18.89° C | 90% | 1014.7 hPa | 0 mm | - | 0 W/m² | - |
| 1777606457 | 18.89° C | 89% | 1014.6 hPa | 0 mm | - | 0 W/m² | - |
* Rain latest hour (hover to see other rain measurements)
** Current wind speed in m/s (hover to see current wind gust speed)